PBO Station Position Time Series. Reference Frame : NAM14
Format Version,1.1.0
4-character ID,WDBN
Station name,Woddburn_Coop
Begin Date, 2002-05-15
End Date, 2019-09-27
Release Date, 2019-10-08
Reference position, 45.1708641296 North Latitude, -122.8700531651 East Longitude, 39.81037 meters elevation,
Date, North (mm), East (mm), Vertical (mm), North Std. Deviation (mm), East Std. Deviation (mm),              Vertical Std. Deviation (mm), Quality,
2002-05-15,0.00, 0.00, 0.00, 2.35, 1.79, 7.99, repro,
2002-05-16,0.15, -1.02, 4.09, 2.33, 1.74, 7.82, repro,
2002-05-17,0.27, -0.50, -4.77, 2.36, 1.74, 7.82, repro,
2002-05-18,1.59, 1.55, -2.97, 2.37, 1.81, 8.02, repro,
2002-05-19,-0.81, -0.19, 0.07, 2.33, 1.75, 7.86, repro,
2002-05-20,2.86, -2.43, 0.74, 2.36, 1.75, 7.89, repro,
2002-05-21,0.75, -1.13, -2.24, 2.33, 1.73, 7.79, repro,
2002-05-22,1.13, 0.50, -1.21, 2.31, 1.73, 7.76, repro,
2002-05-23,0.47, -0.37, 3.62, 2.33, 1.75, 7.83, repro,
2002-05-24,-0.15, 0.10, 7.41, 2.34, 1.75, 7.86, repro,
2002-05-25,-0.16, 1.46, -0.61, 2.36, 1.79, 8.01, repro,
2002-05-26,-0.44, -1.48, 5.12, 2.39, 1.78, 8.04, repro,
2002-05-27,0.82, 0.76, 15.24, 2.34, 1.75, 7.87, repro,
2002-05-28,-0.48, -1.78, 5.94, 2.34, 1.73, 7.80, repro,
2002-05-29,0.34, -1.22, 10.06, 2.33, 1.75, 7.87, repro,
2002-05-30,1.97, -0.99, 9.19, 2.38, 1.80, 8.13, repro,
2002-05-31,0.12, 0.17, 11.87, 2.44, 1.82, 8.35, repro,
2002-06-01,0.52, 0.44, 7.40, 2.40, 1.76, 8.09, repro,
2002-06-02,1.08, -0.99, 2.82, 2.35, 1.76, 7.90, repro,
2002-06-03,1.37, 1.26, 11.14, 2.32, 1.74, 7.81, repro,
2002-06-04,0.55, 0.57, 6.42, 2.34, 1.78, 8.04, repro,
2002-06-05,-3.27, -1.55, 2.52, 2.80, 2.07, 9.35, repro,
2002-06-10,-0.79, -1.57, 2.89, 2.64, 2.05, 9.08, repro,
2002-06-11,-0.16, -0.72, 10.80, 2.48, 1.88, 8.42, repro,
2002-06-12,1.69, 1.44, 11.26, 2.46, 1.88, 8.45, repro,
2002-06-13,-0.28, 1.81, 2.75, 2.38, 1.81, 8.20, repro,
2002-06-14,0.28, 0.62, 12.28, 2.48, 1.90, 8.73, repro,
2002-06-15,-0.13, 1.75, -1.00, 2.35, 1.73, 7.83, repro,
2002-06-16,1.64, 2.40, 0.62, 2.35, 1.75, 7.98, repro,
2002-06-17,0.18, -0.45, 8.54, 2.39, 1.76, 8.05, repro,
2002-06-18,0.98, -1.48, -3.76, 2.38, 1.73, 7.90, repro,
2002-06-19,-1.61, 0.48, 3.57, 2.40, 1.81, 8.26, repro,
2002-06-20,-0.79, 0.29, -0.41, 2.36, 1.73, 7.87, repro,
2002-06-21,0.42, 0.49, 2.47, 2.43, 1.84, 8.21, repro,
2002-06-22,0.06, 3.20, 0.39, 2.36, 1.78, 8.09, repro,
2002-06-23,1.03, 0.71, 0.44, 2.36, 1.71, 7.85, repro,
2002-06-24,-1.17, -0.21, 9.68, 2.38, 1.73, 7.92, repro,
2002-06-25,0.17, 2.64, 6.07, 2.38, 1.72, 7.88, repro,
2002-06-26,-1.72, 2.27, 1.88, 2.44, 1.87, 8.38, repro,
2002-06-27,0.36, 3.19, -4.25, 2.47, 1.92, 8.81, repro,
2002-06-28,-0.14, -1.14, 2.69, 2.38, 1.77, 8.09, repro,
2002-06-29,2.75, 0.41, 0.63, 2.36, 1.75, 7.96, repro,
2002-06-30,0.15, 0.86, 3.75, 2.41, 1.78, 8.14, repro,
2002-07-01,0.96, -1.09, -3.31, 2.40, 1.75, 8.05, repro,
2002-07-02,-0.61, 1.15, 4.16, 2.40, 1.77, 8.06, repro,
2002-07-03,0.94, -0.64, 2.68, 2.38, 1.77, 8.01, repro,
2002-07-04,1.89, 2.07, 5.37, 2.39, 1.79, 8.15, repro,
2002-07-05,-1.56, 1.25, 4.46, 2.39, 1.75, 7.99, repro,
2002-07-06,1.35, 0.65, -0.21, 2.37, 1.71, 7.89, repro,
2002-07-07,0.94, 1.14, 2.87, 2.40, 1.73, 7.99, repro,
2002-07-08,0.28, -0.46, 6.60, 2.46, 1.79, 8.33, repro,
2002-07-09,-0.40, 1.88, -8.97, 2.43, 1.85, 8.39, repro,
2002-07-10,1.13, 0.05, 4.32, 2.45, 1.75, 8.01, repro,
2002-07-11,-0.73, 0.35, -1.10, 2.39, 1.71, 7.90, repro,
2002-07-12,-0.41, -0.68, -5.90, 2.47, 1.75, 8.07, repro,
2002-07-13,0.70, -0.36, -14.55, 2.44, 1.75, 8.09, repro,
2002-07-14,1.39, -1.30, -4.47, 2.41, 1.74, 7.98, repro,
2002-07-15,-1.19, -0.04, 1.77, 2.46, 1.78, 8.22, repro,
2002-07-16,-0.53, -0.86, -4.51, 2.39, 1.72, 7.94, repro,
2002-07-17,0.83, 1.91, -2.61, 2.42, 1.74, 8.01, repro,
2002-07-18,-2.70, 2.79, -13.79, 2.60, 1.83, 8.38, repro,
2002-07-19,2.75, 1.15, -4.31, 2.46, 1.79, 8.17, repro,
2002-07-20,2.10, -1.49, -7.44, 2.39, 1.70, 7.86, repro,
2002-07-21,0.26, 0.86, 1.62, 2.41, 1.74, 8.10, repro,
2002-07-22,1.54, 0.97, 5.70, 2.38, 1.73, 7.97, repro,
2002-07-23,1.18, -0.00, -2.65, 2.43, 1.77, 8.28, repro,
2002-07-24,0.54, 1.87, -11.85, 2.43, 1.75, 8.14, repro,
2002-07-25,4.78, 0.31, -14.13, 2.37, 1.71, 7.92, repro,
2002-07-26,2.27, 2.18, -1.81, 2.44, 1.76, 8.18, repro,
2002-07-27,2.41, -0.55, -2.87, 2.39, 1.73, 8.02, repro,
2002-07-28,-0.82, -0.87, -7.84, 2.37, 1.73, 7.98, repro,
2002-07-29,2.67, -0.50, -9.68, 2.37, 1.72, 7.97, repro,
2002-07-30,1.01, -1.40, -10.73, 2.40, 1.75, 8.05, repro,
2002-07-31,3.31, -2.50, -14.69, 2.51, 1.74, 8.07, repro,
2002-08-01,2.51, -1.99, -19.08, 2.39, 1.72, 7.92, repro,
2002-08-02,0.66, 1.25, -20.11, 2.42, 1.79, 8.19, repro,
2002-08-03,1.05, -0.02, -9.82, 2.46, 1.75, 8.02, repro,
2002-08-04,1.01, -1.22, -0.44, 2.44, 1.73, 8.05, repro,
2002-08-05,4.58, -0.64, -10.37, 2.42, 1.69, 7.85, repro,
2002-08-06,3.29, -1.03, -13.28, 2.47, 1.72, 8.09, repro,
2002-08-07,2.04, -0.82, -18.39, 2.52, 1.76, 8.12, repro,
2002-08-08,2.17, 1.30, -12.85, 2.44, 1.76, 8.12, repro,
2002-08-09,-3.38, -0.81, -8.58, 2.39, 1.69, 7.83, repro,
2002-08-10,0.84, 0.59, -11.68, 2.42, 1.73, 8.01, repro,
2002-08-11,1.81, -3.42, -17.71, 2.49, 1.70, 7.94, repro,
2002-08-12,-1.40, -1.66, -7.58, 2.50, 1.72, 7.95, repro,
2002-08-13,-1.99, 1.38, -5.53, 2.51, 1.79, 8.18, repro,
2002-08-14,1.97, 0.26, 1.26, 2.52, 1.76, 8.22, repro,
2002-08-15,2.03, -0.19, -18.71, 2.43, 1.76, 8.09, repro,
2002-08-16,1.77, 2.44, -7.55, 2.38, 1.70, 7.92, repro,
2002-08-17,0.68, 2.94, -12.39, 2.38, 1.76, 8.11, repro,
2002-08-18,1.76, 5.47, -7.14, 2.42, 1.78, 8.24, repro,
2002-08-19,1.89, 1.86, -3.14, 2.39, 1.76, 8.06, repro,
2002-08-20,5.33, 3.37, -5.16, 2.34, 1.71, 7.92, repro,
2002-08-21,3.62, 1.21, -9.38, 2.34, 1.68, 7.84, repro,
2002-08-22,4.40, 1.87, -5.85, 2.33, 1.68, 7.78, repro,
2002-08-23,2.81, 1.20, -19.69, 2.36, 1.72, 7.86, repro,
2002-08-24,3.48, 1.87, -11.46, 2.33, 1.71, 7.81, repro,
2002-08-25,0.68, 1.55, -12.03, 2.31, 1.70, 7.80, repro,
2002-08-26,2.08, 1.58, -2.42, 2.33, 1.71, 7.88, repro,
2002-08-27,1.31, 1.74, -16.32, 2.84, 2.17, 9.67, repro,
2002-09-09,7.80, -1.67, -17.90, 4.85, 3.50, 15.75, repro,
2002-09-10,-2.06, 5.92, -12.24, 4.35, 3.13, 14.42, repro,
2003-01-01,2.41, 1.26, 10.03, 2.52, 1.85, 8.40, repro,
2003-01-02,3.97, 2.21, 3.43, 2.45, 1.85, 8.32, repro,
2003-01-03,3.30, -0.18, 2.13, 2.47, 1.86, 8.33, repro,
2003-01-04,3.75, -2.99, 2.23, 2.48, 1.90, 8.34, repro,
2003-01-05,3.20, 0.09, -5.30, 2.39, 1.81, 7.92, repro,
2003-01-06,4.42, 0.59, -5.95, 2.47, 1.89, 8.35, repro,
2003-01-07,5.05, -1.85, -2.90, 2.45, 1.86, 8.16, repro,
2003-01-08,4.75, -0.68, 1.89, 2.45, 1.83, 8.10, repro,
2003-01-09,2.76, 0.31, 7.52, 2.43, 1.78, 7.82, repro,
2003-01-10,3.59, -1.41, 8.30, 2.39, 1.80, 7.92, repro,
2003-01-11,0.44, -0.16, -1.69, 2.36, 1.70, 7.62, repro,
2003-01-12,0.03, 0.43, 3.92, 2.36, 1.71, 7.68, repro,
2003-01-13,-0.18, -0.08, 0.15, 2.37, 1.72, 7.71, repro,
2003-01-14,1.78, 0.23, 1.93, 2.35, 1.71, 7.67, repro,
2003-01-15,1.59, 1.09, -6.39, 2.37, 1.73, 7.73, repro,
2003-01-16,2.79, 1.25, -9.63, 2.37, 1.73, 7.76, repro,
2003-01-17,3.10, 2.25, -0.79, 3.41, 2.56, 11.36, repro,
2003-01-20,-0.43, 1.93, 5.42, 3.09, 2.14, 9.50, repro,
2003-01-22,1.77, 0.16, 9.87, 2.72, 1.97, 8.86, repro,
2003-01-23,-0.40, 0.87, 10.21, 2.57, 1.79, 7.93, repro,
2003-01-24,0.69, 1.50, 9.09, 2.49, 1.74, 7.81, repro,
2003-01-25,-0.26, 1.85, 9.81, 2.41, 1.82, 8.04, repro,
2003-01-26,0.08, 1.33, 10.54, 2.41, 1.80, 7.97, repro,
2003-01-27,2.20, 2.29, 3.09, 2.58, 1.89, 8.31, repro,
2003-01-28,0.42, 3.42, 10.54, 2.50, 1.83, 8.06, repro,
2003-01-29,-0.32, 3.24, 9.12, 2.65, 1.89, 8.47, repro,
2003-01-30,-1.96, 2.09, 12.15, 2.80, 1.90, 8.64, repro,
2003-01-31,1.85, 2.29, 8.17, 2.95, 2.14, 9.18, repro,
2003-02-03,1.22, 0.86, 2.72, 2.54, 1.80, 7.96, repro,
2003-02-04,2.68, 3.82, 2.97, 2.55, 1.93, 8.34, repro,
2003-02-05,3.90, 2.72, 7.03, 2.64, 1.97, 8.65, repro,
2003-02-06,5.03, 1.52, -1.07, 2.71, 2.06, 8.95, repro,
2003-02-07,5.78, 0.76, 7.01, 2.63, 1.96, 8.62, repro,
2003-02-08,6.55, 1.39, 12.19, 2.46, 1.82, 7.95, repro,
2003-02-09,5.86, 1.50, 10.57, 2.58, 1.97, 8.51, repro,
2003-02-10,3.84, 3.58, 9.62, 2.54, 1.88, 8.21, repro,
2003-02-11,5.58, 1.63, 10.51, 2.44, 1.86, 8.17, repro,
2003-02-12,4.27, 2.24, 10.53, 2.37, 1.76, 7.77, repro,
2003-02-13,2.31, 3.50, 14.43, 2.44, 1.81, 8.00, repro,
2003-02-14,4.87, 2.48, 8.21, 2.36, 1.74, 7.70, repro,
2003-02-15,0.25, 2.78, 5.84, 2.42, 1.75, 7.73, repro,
2003-02-16,-0.72, 1.79, 18.31, 2.57, 1.86, 8.21, repro,
2003-02-17,0.68, 2.93, 6.45, 2.63, 2.02, 8.70, repro,
2003-02-18,1.28, 2.92, 15.47, 2.50, 1.89, 8.27, repro,
2003-02-19,2.40, 0.30, 8.03, 2.41, 1.77, 7.88, repro,
2003-02-20,-0.34, 1.32, 10.99, 2.30, 1.66, 7.46, repro,
2003-02-21,0.81, 1.34, 9.08, 2.30, 1.66, 7.46, repro,
2003-02-22,3.63, -0.56, 4.40, 2.33, 1.72, 7.68, repro,
2003-02-23,4.83, 0.19, 0.61, 2.37, 1.71, 7.70, repro,
2003-02-24,4.43, 2.00, 4.06, 2.32, 1.70, 7.58, repro,
2003-02-25,2.79, 1.77, 7.79, 3.00, 2.10, 9.22, repro,
2003-02-28,-0.33, 1.73, 10.85, 2.30, 1.66, 7.49, repro,
2003-03-01,3.12, 0.21, 9.09, 2.38, 1.73, 7.79, repro,
2003-03-02,1.06, 2.97, 4.47, 2.36, 1.73, 7.75, repro,
2003-03-03,0.89, 1.94, 13.22, 2.34, 1.70, 7.66, repro,
2003-03-04,0.14, 1.52, 14.34, 2.34, 1.69, 7.59, repro,
2003-03-05,-0.41, 0.41, 12.97, 2.33, 1.67, 7.51, repro,
2003-03-06,-0.33, -0.37, 8.41, 2.31, 1.67, 7.54, repro,
2003-03-07,2.11, 1.65, 11.10, 2.39, 1.72, 7.92, repro,
2003-03-08,2.50, 1.66, 14.24, 2.39, 1.72, 7.93, repro,
2003-03-09,-0.87, 3.51, 13.22, 2.31, 1.66, 7.50, repro,
2003-03-10,1.55, 0.75, 5.19, 2.33, 1.68, 7.50, repro,
2003-03-11,0.12, 3.22, 10.87, 2.31, 1.66, 7.51, repro,
2003-03-12,-1.39, 1.79, 10.92, 2.46, 1.74, 7.86, repro,
2003-03-13,-3.50, 2.68, 22.17, 2.46, 1.75, 7.97, repro,
2003-03-14,-0.51, 2.00, 22.00, 2.40, 1.72, 7.79, repro,
2003-03-15,-0.20, 1.47, 26.99, 2.41, 1.72, 7.80, repro,
2003-03-16,-0.16, 0.23, 6.75, 2.34, 1.71, 7.71, repro,
2003-03-17,2.14, -0.40, 11.64, 2.36, 1.72, 7.81, repro,
2003-03-18,0.09, 0.86, 10.59, 2.34, 1.72, 7.80, repro,
2003-03-19,-0.51, 0.66, 17.43, 2.32, 1.66, 7.54, repro,
2003-03-20,1.38, 0.04, 12.81, 2.37, 1.71, 7.72, repro,
2003-03-21,-0.72, 2.14, 13.72, 2.34, 1.70, 7.64, repro,
2003-03-22,1.64, 2.71, 13.80, 2.37, 1.73, 7.83, repro,
2003-03-23,-1.44, 0.36, 4.19, 2.33, 1.68, 7.58, repro,
2003-03-24,2.57, -1.45, 9.79, 2.31, 1.66, 7.53, repro,
2003-03-25,-1.68, 3.75, 10.74, 2.38, 1.75, 7.92, repro,
2003-03-26,3.51, 2.16, 5.60, 2.31, 1.67, 7.46, repro,
2003-03-27,-0.11, 2.70, 0.42, 2.38, 1.75, 7.91, repro,
2003-03-28,1.96, 2.79, 0.46, 2.32, 1.69, 7.60, repro,
2003-03-29,2.64, 0.97, 2.35, 2.35, 1.71, 7.76, repro,
2003-03-30,1.59, 0.91, 6.11, 2.32, 1.64, 7.46, repro,
2003-03-31,-0.26, 2.62, 11.64, 2.35, 1.67, 7.55, repro,
2003-04-01,-0.72, 1.86, 15.25, 2.36, 1.70, 7.74, repro,
2003-04-02,-0.30, 1.36, 20.21, 2.33, 1.68, 7.59, repro,
2003-04-03,-0.15, 1.06, 12.67, 2.35, 1.70, 7.70, repro,
2003-04-04,0.29, 3.55, 15.42, 2.34, 1.70, 7.65, repro,
2003-04-05,3.27, 2.49, 17.54, 2.30, 1.64, 7.42, repro,
2003-04-06,-0.47, 2.62, 10.95, 2.33, 1.67, 7.55, repro,
2003-04-07,-0.92, 2.21, 10.19, 2.31, 1.67, 7.52, repro,
2003-04-08,2.33, 3.86, 8.33, 2.30, 1.68, 7.55, repro,
2003-04-09,2.63, 0.94, 11.80, 2.35, 1.75, 7.85, repro,
2003-04-10,0.19, 1.66, 22.21, 2.33, 1.71, 7.73, repro,
2003-04-11,0.45, 2.36, 14.47, 2.32, 1.67, 7.56, repro,
2003-04-12,1.59, 1.77, 12.41, 2.30, 1.64, 7.41, repro,
2003-04-13,1.51, 0.97, 14.17, 2.37, 1.69, 7.59, repro,
2003-04-14,-1.05, 0.71, 13.80, 2.30, 1.64, 7.39, repro,
2003-04-15,1.09, 2.98, 20.07, 2.29, 1.64, 7.50, repro,
2003-04-16,-0.83, 1.51, 13.16, 2.30, 1.63, 7.43, repro,
2003-04-17,-2.99, 1.37, 16.42, 2.34, 1.67, 7.62, repro,
2003-04-18,0.71, -0.05, 17.50, 2.30, 1.65, 7.51, repro,
2003-04-19,0.16, 2.03, 13.74, 2.29, 1.64, 7.42, repro,
2003-04-20,0.04, 1.67, 10.32, 2.29, 1.63, 7.35, repro,
2003-04-21,-0.89, 0.44, 20.39, 2.29, 1.62, 7.38, repro,
2003-04-22,-0.17, 3.47, 19.30, 2.33, 1.68, 7.53, repro,
2003-04-23,-1.98, 2.27, 14.72, 2.30, 1.63, 7.36, repro,
2003-04-24,-0.95, 0.45, 17.99, 2.29, 1.64, 7.44, repro,
2003-04-25,-0.11, 0.23, 14.55, 2.26, 1.62, 7.28, repro,
2003-04-26,-1.32, 3.44, 14.99, 2.32, 1.68, 7.67, repro,
2003-04-27,-0.86, 1.67, 12.53, 2.28, 1.62, 7.30, repro,
2003-04-28,-1.27, 0.77, 15.02, 2.33, 1.66, 7.53, repro,
2003-04-29,-1.64, 0.56, 20.37, 2.29, 1.64, 7.37, repro,
2003-04-30,0.31, 2.43, 13.54, 2.40, 1.69, 7.61, repro,
2003-05-11,-1.12, 2.57, 15.95, 2.31, 1.63, 7.35, repro,
2003-05-12,-1.63, 2.31, 19.27, 2.28, 1.61, 7.29, repro,
2003-05-13,-1.47, 0.37, 16.73, 2.30, 1.60, 7.25, repro,
2003-05-14,-1.49, 0.33, 22.95, 2.35, 1.67, 7.55, repro,
2003-05-15,-1.23, 1.76, 10.62, 2.46, 1.72, 8.07, repro,
2003-05-16,-0.91, 2.70, 12.61, 2.31, 1.63, 7.33, repro,
2003-05-17,-0.21, 1.49, 7.73, 2.40, 1.71, 7.75, repro,
2003-05-18,0.06, 0.86, 5.95, 2.29, 1.60, 7.23, repro,
2003-05-19,-1.47, 0.96, 17.24, 2.32, 1.61, 7.21, repro,
2003-05-20,-0.59, 3.73, 20.49, 2.33, 1.63, 7.31, repro,
2003-05-21,0.69, 2.66, 11.86, 2.35, 1.64, 7.54, repro,
2003-05-22,-2.74, 2.61, 21.49, 2.34, 1.64, 7.42, repro,
2003-05-23,-0.98, 0.76, 16.36, 2.31, 1.64, 7.45, repro,
2003-05-24,-1.14, 2.84, 16.20, 2.37, 1.66, 7.71, repro,
2003-05-25,1.78, 1.09, 24.62, 2.31, 1.61, 7.27, repro,
2003-05-26,-0.34, 2.32, 29.81, 2.30, 1.62, 7.35, repro,
2003-05-27,-0.26, -0.35, 18.26, 2.47, 1.74, 8.02, repro,
2003-05-28,-1.95, 2.36, 18.45, 2.40, 1.72, 7.74, repro,
2003-05-29,-1.19, 0.23, 22.55, 2.35, 1.72, 7.66, repro,
2003-05-30,-0.87, 1.42, 20.66, 2.32, 1.73, 7.63, repro,
2003-05-31,-0.52, -0.86, 8.01, 2.33, 1.64, 7.44, repro,
2003-06-01,-1.74, 1.75, 13.17, 2.29, 1.61, 7.27, repro,
2003-06-02,0.14, 3.70, 6.51, 2.40, 1.68, 7.58, repro,
2003-06-03,-1.84, 2.82, 16.82, 2.39, 1.66, 7.54, repro,
2003-06-04,-3.26, 3.19, 16.58, 2.37, 1.62, 7.37, repro,
2003-06-05,-2.39, 2.63, 14.48, 2.33, 1.62, 7.32, repro,
2003-06-16,0.03, 2.43, 7.82, 2.26, 1.58, 7.13, repro,
2003-06-17,0.18, 2.82, 5.27, 2.31, 1.65, 7.46, repro,
2003-06-18,1.15, 2.75, 6.84, 2.31, 1.66, 7.45, repro,
2003-06-19,-0.33, 3.10, 6.59, 2.27, 1.62, 7.37, repro,
2003-06-20,0.81, 1.26, 6.23, 2.30, 1.59, 7.22, repro,
2003-06-21,1.11, 3.32, 0.35, 2.30, 1.63, 7.29, repro,
2003-06-22,1.57, 1.95, 6.37, 2.28, 1.62, 7.29, repro,
2003-06-23,2.43, 3.58, 6.01, 2.27, 1.62, 7.30, repro,
2003-06-24,0.95, 1.94, 7.02, 2.27, 1.65, 7.36, repro,
2003-06-25,-0.50, 1.93, 11.74, 2.35, 1.63, 7.54, repro,
2003-06-26,-2.16, 1.92, -0.26, 2.32, 1.63, 7.38, repro,
2003-06-30,3.08, 3.02, -1.99, 2.36, 1.68, 7.61, repro,
2003-07-01,3.40, 1.71, -4.56, 2.30, 1.63, 7.38, repro,
2003-07-02,0.11, 0.50, -8.02, 2.32, 1.62, 7.38, repro,
2003-07-03,0.74, 3.20, -3.28, 2.38, 1.69, 7.67, repro,
2003-07-04,1.52, 3.10, -8.36, 2.37, 1.71, 7.77, repro,
2003-07-05,1.63, 2.58, -0.56, 2.31, 1.65, 7.50, repro,
2003-07-06,0.36, 0.43, -1.16, 2.33, 1.64, 7.42, repro,
2003-07-07,1.34, 1.70, -2.05, 2.34, 1.64, 7.46, repro,
2003-07-08,2.67, 3.15, -3.33, 2.32, 1.65, 7.41, repro,
2003-07-09,3.54, 2.92, -4.45, 2.30, 1.64, 7.36, repro,
2003-07-10,2.55, 0.53, -2.24, 2.36, 1.68, 7.65, repro,
2003-07-11,1.40, -1.62, 0.75, 2.39, 1.67, 7.53, repro,
2003-07-13,2.51, 0.64, -3.31, 2.34, 1.65, 7.45, repro,
2003-07-14,2.04, 0.41, -5.89, 2.32, 1.63, 7.40, repro,
2003-07-15,0.03, 0.04, -6.77, 2.50, 1.75, 7.87, repro,
2003-07-16,2.52, 4.45, -6.03, 2.37, 1.67, 7.59, repro,
2003-07-17,2.13, 0.52, -3.62, 2.44, 1.67, 7.66, repro,
2003-07-18,2.86, 2.15, -4.79, 2.33, 1.65, 7.41, repro,
2003-07-19,1.85, 1.52, -16.73, 2.33, 1.64, 7.46, repro,
2003-07-20,1.05, 1.50, -5.64, 2.32, 1.65, 7.42, repro,
2003-07-21,2.76, 0.90, -11.74, 2.36, 1.70, 7.55, repro,
2003-07-22,2.34, -0.88, -13.38, 2.34, 1.66, 7.49, repro,
2003-07-23,1.61, 0.92, -7.76, 2.33, 1.64, 7.45, repro,
2003-07-24,2.60, 1.98, -7.58, 2.32, 1.62, 7.31, repro,
2003-07-28,1.62, 1.74, -13.68, 2.40, 1.69, 7.63, repro,
2003-07-29,0.17, 2.58, -15.25, 2.41, 1.75, 7.72, repro,
2003-07-30,1.80, 1.88, -12.64, 2.37, 1.66, 7.47, repro,
2003-07-31,3.38, 0.69, -10.52, 2.36, 1.70, 7.66, repro,
2003-08-01,3.45, 0.74, -14.44, 2.41, 1.76, 7.80, repro,
2003-08-02,0.69, 0.18, -6.05, 2.41, 1.71, 7.74, repro,
2003-08-03,2.19, 1.74, -3.44, 2.40, 1.70, 7.69, repro,
2003-08-04,3.37, 2.44, -8.30, 2.37, 1.69, 7.54, repro,
2003-08-05,0.52, 4.58, -7.59, 2.36, 1.69, 7.58, repro,
2003-08-06,2.78, 3.70, -12.58, 2.26, 1.61, 7.25, repro,
2003-08-07,2.94, 2.63, -8.69, 2.28, 1.62, 7.29, repro,
2003-08-08,1.95, 5.71, -6.51, 2.31, 1.65, 7.38, repro,
2003-08-09,1.71, 5.72, -8.21, 2.29, 1.65, 7.32, repro,
2003-08-10,2.73, 5.83, -3.76, 2.29, 1.63, 7.35, repro,
2003-08-11,1.68, 3.69, -12.44, 2.29, 1.62, 7.32, repro,
2003-08-12,2.69, 4.23, -6.21, 2.31, 1.66, 7.50, repro,
2003-08-13,0.70, 1.61, -17.48, 2.36, 1.70, 7.63, repro,
2003-08-16,1.39, 4.45, -10.58, 2.26, 1.62, 7.26, repro,
2003-08-17,1.81, 2.77, -2.54, 2.26, 1.62, 7.24, repro,
2003-08-18,1.75, 1.09, -13.21, 2.27, 1.61, 7.33, repro,
2003-08-19,0.58, 5.20, -11.48, 2.30, 1.64, 7.37, repro,
2003-08-20,0.82, 4.24, -5.56, 2.27, 1.61, 7.24, repro,
2003-08-21,1.20, 3.21, -8.11, 2.25, 1.62, 7.26, repro,
2003-08-22,0.40, 3.75, -7.04, 2.30, 1.65, 7.44, repro,
2003-08-24,2.26, 2.80, -5.58, 2.29, 1.63, 7.41, repro,
2003-08-25,-0.59, 3.50, -12.84, 2.27, 1.61, 7.33, repro,
2003-08-26,1.84, 4.89, -2.71, 2.32, 1.67, 7.50, repro,
2003-08-27,1.62, 5.08, -3.51, 2.25, 1.61, 7.28, repro,
2003-08-28,1.85, 2.28, -8.79, 2.29, 1.63, 7.35, repro,
2003-08-29,0.12, 3.01, -14.67, 2.28, 1.63, 7.40, repro,
2003-08-30,0.67, 3.73, -11.57, 2.30, 1.64, 7.44, repro,
2003-08-31,0.41, 3.12, -0.58, 2.25, 1.61, 7.22, repro,
2003-09-01,1.25, 2.44, -6.76, 2.29, 1.66, 7.41, repro,
2003-09-02,0.81, 4.82, 1.15, 2.27, 1.61, 7.26, repro,
2003-09-03,0.59, 3.19, -5.05, 2.27, 1.63, 7.29, repro,
2003-09-04,1.10, 1.62, 6.24, 2.28, 1.62, 7.34, repro,
2003-09-05,2.91, 2.61, -11.84, 2.28, 1.61, 7.27, repro,
2003-09-06,0.45, 1.92, -2.97, 2.23, 1.60, 7.17, repro,
2003-09-07,0.73, 0.94, 12.02, 2.49, 1.80, 8.08, repro,
2003-09-09,-0.75, 2.63, 1.90, 2.30, 1.65, 7.44, repro,
2003-09-10,1.73, 4.02, 0.27, 2.29, 1.64, 7.39, repro,
2003-09-11,0.20, 2.04, -0.95, 2.30, 1.62, 7.38, repro,
2003-09-12,2.27, 3.37, -4.49, 2.29, 1.63, 7.33, repro,
2003-09-13,2.27, 2.59, -3.85, 2.29, 1.62, 7.29, repro,
2003-09-14,-0.96, 1.00, -3.00, 2.28, 1.63, 7.33, repro,
2003-09-15,2.90, 1.98, -10.90, 2.26, 1.63, 7.29, repro,
2003-09-16,0.19, 3.76, 7.92, 2.31, 1.63, 7.41, repro,
2003-09-17,1.66, 0.95, 0.06, 2.26, 1.62, 7.27, repro,
2003-09-18,0.25, 1.16, -1.70, 2.31, 1.64, 7.40, repro,
2003-09-19,-0.12, 2.92, 11.53, 2.37, 1.72, 7.69, repro,
2003-09-20,3.13, 1.14, -3.26, 2.31, 1.63, 7.39, repro,
2003-09-21,1.05, 4.41, 0.22, 2.28, 1.64, 7.34, repro,
2003-09-22,3.74, 2.77, -4.05, 2.32, 1.66, 7.40, repro,
2003-09-23,1.45, 1.31, -1.18, 2.32, 1.65, 7.45, repro,
2003-09-24,3.31, 2.75, -3.99, 2.38, 1.70, 7.69, repro,
2003-09-25,1.12, 3.25, -4.19, 2.45, 1.69, 7.74, repro,
2003-09-26,4.38, 4.15, 2.23, 2.43, 1.70, 7.70, repro,
2003-09-27,4.73, 3.10, -0.28, 2.38, 1.67, 7.57, repro,
2003-09-28,2.84, 2.28, -2.90, 2.42, 1.72, 7.76, repro,
2003-09-29,0.15, 2.80, 3.85, 2.44, 1.71, 7.69, repro,
2003-09-30,1.28, 4.35, 3.10, 2.45, 1.73, 7.76, repro,
2003-10-01,3.16, 2.80, 4.96, 2.53, 1.79, 8.10, repro,
2003-10-02,1.94, 3.99, -6.07, 2.46, 1.76, 7.80, repro,
2003-10-03,2.33, 4.07, 15.68, 2.40, 1.68, 7.57, repro,
2003-10-04,-0.64, 2.63, 4.33, 3.32, 2.51, 11.05, repro,
2003-10-10,2.28, -0.70, 1.93, 2.41, 1.68, 7.53, repro,
2003-10-11,0.67, 2.80, 16.91, 2.41, 1.70, 7.62, repro,
2003-10-12,4.27, 4.42, 1.34, 2.47, 1.76, 7.82, repro,
2003-10-13,1.83, 1.63, 0.78, 2.41, 1.71, 7.64, repro,
2003-10-14,1.58, 1.80, 14.20, 2.37, 1.72, 7.66, repro,
2003-10-15,0.34, 3.48, 6.85, 2.28, 1.65, 7.35, repro,
2003-10-16,2.41, 2.35, 3.90, 2.29, 1.63, 7.30, repro,
2003-10-17,8.19, 3.43, 3.34, 2.41, 1.72, 7.69, repro,
2003-10-18,5.50, -0.21, 5.12, 2.39, 1.74, 7.77, repro,
2003-10-19,2.11, 1.21, 12.02, 2.29, 1.64, 7.39, repro,
2003-10-20,-0.04, 2.83, -2.03, 2.29, 1.65, 7.39, repro,
2003-10-21,1.72, 0.63, 8.52, 2.26, 1.62, 7.27, repro,
2003-10-22,2.49, 2.18, 3.66, 2.48, 1.74, 7.94, repro,
2003-10-23,0.95, 2.23, 1.32, 2.38, 1.72, 7.69, repro,
2003-10-24,3.16, 0.71, -1.25, 2.43, 1.74, 7.85, repro,
2003-10-25,2.24, 2.04, 1.87, 2.26, 1.62, 7.30, repro,
2003-10-26,1.98, 1.69, 3.02, 2.27, 1.64, 7.42, repro,
2003-10-27,3.08, 0.45, 6.47, 2.26, 1.61, 7.28, repro,
2003-10-28,0.61, 1.28, 9.35, 2.26, 1.62, 7.27, repro,
2003-10-29,1.23, 1.98, 2.50, 2.43, 1.78, 8.24, repro,
2003-10-30,0.30, -0.04, -3.70, 2.57, 1.83, 8.43, repro,
2003-10-31,2.10, -0.75, 0.21, 2.34, 1.68, 7.55, repro,
2003-11-01,0.97, -0.75, 3.12, 2.24, 1.61, 7.23, repro,
2003-11-02,0.41, 1.81, 7.18, 2.25, 1.62, 7.30, repro,
2003-11-03,3.51, -0.51, 7.49, 2.32, 1.65, 7.51, repro,
2003-11-04,0.10, 1.61, 0.22, 2.30, 1.67, 7.57, repro,
2003-11-05,1.85, 2.44, 1.01, 2.22, 1.61, 7.24, repro,
2003-11-06,1.55, 1.63, 4.38, 2.27, 1.62, 7.27, repro,
2003-11-07,0.38, 0.64, 2.69, 2.27, 1.66, 7.44, repro,
2003-11-08,1.54, 2.79, 2.05, 2.30, 1.67, 7.47, repro,
2003-11-09,2.77, -0.28, 8.47, 2.23, 1.61, 7.25, repro,
2003-11-10,-0.72, 1.91, 12.31, 2.35, 1.72, 7.72, repro,
2003-11-11,-0.31, 1.57, 12.63, 2.29, 1.66, 7.39, repro,
2003-11-12,1.08, 2.17, 1.44, 2.25, 1.62, 7.23, repro,
2003-11-13,3.00, 0.59, 8.36, 2.44, 1.74, 7.72, repro,
2003-11-14,-1.68, 0.56, 7.84, 2.45, 1.74, 7.73, repro,
2003-11-17,0.54, 1.81, 3.20, 2.37, 1.72, 7.60, repro,
2003-11-18,-1.52, 2.12, 6.94, 2.43, 1.75, 7.89, repro,
2003-11-19,0.97, 2.71, 11.43, 2.33, 1.67, 7.47, repro,
2003-11-21,0.15, 0.92, 13.31, 2.35, 1.69, 7.54, repro,
2003-11-22,-0.74, 2.59, 0.11, 2.35, 1.72, 7.60, repro,
2003-11-23,-1.02, 1.51, -0.28, 2.36, 1.75, 7.64, repro,
2003-11-24,0.31, 1.53, 14.06, 2.33, 1.70, 7.48, repro,
2003-11-25,0.33, 3.32, 13.28, 2.41, 1.73, 7.69, repro,
2003-11-26,0.79, 1.85, 20.72, 2.33, 1.70, 7.58, repro,
2003-11-27,0.20, 2.43, -0.36, 2.33, 1.69, 7.55, repro,
2003-11-28,1.26, 2.90, -0.06, 2.34, 1.69, 7.49, repro,
2003-11-29,-0.59, 2.26, 10.84, 2.28, 1.67, 7.42, repro,
2003-11-30,-0.06, 1.93, 10.31, 2.31, 1.71, 7.53, repro,
2003-12-01,-0.17, 2.62, 5.07, 2.28, 1.66, 7.37, repro,
2003-12-02,-0.25, 2.80, 2.84, 2.41, 1.74, 7.70, repro,
2003-12-03,2.09, 1.68, 8.77, 2.40, 1.70, 7.61, repro,
2003-12-04,-0.31, 2.71, 13.04, 2.37, 1.75, 7.78, repro,
2003-12-05,-1.07, 2.30, 11.32, 2.26, 1.68, 7.52, repro,
2003-12-06,2.48, -0.44, 7.63, 2.34, 1.71, 7.54, repro,
2003-12-07,0.59, 2.64, 17.07, 2.41, 1.73, 7.85, repro,
2003-12-08,1.89, 2.79, 7.24, 2.43, 1.77, 8.05, repro,
2003-12-09,-0.74, 1.15, 5.48, 2.46, 1.75, 7.88, repro,
2003-12-10,1.25, 3.07, 6.07, 2.33, 1.70, 7.51, repro,
2003-12-11,1.42, 1.58, 12.06, 2.39, 1.73, 7.74, repro,
2003-12-12,-1.46, 2.93, 12.75, 2.33, 1.69, 7.53, repro,
2003-12-13,1.74, 4.16, 11.25, 2.35, 1.73, 7.64, repro,
2003-12-14,0.05, 1.45, 6.94, 2.36, 1.69, 7.53, repro,
2003-12-15,2.12, 1.61, -1.10, 2.22, 1.63, 7.27, repro,
2003-12-16,2.58, 2.69, -2.05, 2.40, 1.73, 7.75, repro,
2003-12-17,2.96, 3.34, 7.56, 2.36, 1.73, 7.77, repro,
2003-12-18,2.39, 2.55, 7.12, 2.37, 1.78, 7.95, repro,
2003-12-19,-0.47, 2.11, 20.17, 2.42, 1.79, 8.09, repro,
2003-12-20,1.11, 0.59, 11.80, 2.51, 1.80, 8.25, repro,
2003-12-21,2.70, 1.31, 13.31, 2.50, 1.79, 8.26, repro,
2003-12-23,1.50, 3.87, 4.75, 2.39, 1.75, 7.92, repro,
2004-02-11,4.00, 0.01, -2.03, 2.25, 1.68, 7.45, repro,
2004-02-12,4.68, 0.47, 3.91, 2.30, 1.67, 7.56, repro,
2004-02-13,0.07, 0.09, 16.02, 2.35, 1.70, 7.68, repro,
2004-02-14,0.59, -0.82, 8.49, 2.30, 1.65, 7.46, repro,
2004-02-15,5.80, 0.15, 10.27, 2.33, 1.73, 7.78, repro,
2004-02-16,-1.81, -0.31, 5.18, 2.30, 1.66, 7.48, repro,
2004-02-17,0.66, -1.57, 7.69, 2.30, 1.67, 7.57, repro,
2004-02-18,0.34, 0.98, 11.48, 2.31, 1.66, 7.53, repro,
2004-02-19,0.83, 0.22, 12.88, 2.31, 1.66, 7.54, repro,
2004-02-20,4.54, 0.23, 9.42, 2.29, 1.67, 7.52, repro,
2004-02-21,0.17, 1.47, 9.84, 2.25, 1.62, 7.28, repro,
2004-02-22,0.43, -0.69, 19.34, 2.28, 1.65, 7.38, repro,
2004-02-23,0.93, 0.98, 11.88, 2.29, 1.66, 7.41, repro,